Flag for Norway Weather past 2 weeks in Knarvik, Norway

Now
35 °F

Chilly.


Feels Like: 31 °F
Forecast: 20 / 40 °F
Wind: 5 mph from Southeast

Location: Bergen / Florida

Current Time: Mar 4, 2015 at 1:50:05 AM

Latest Report: Mar 4, 2015 at 1:00 AM


Visibility: N/A

Pressure: 29.63 "Hg

Humidity: 81%

Dew point: 30 °F

Location of KnarvikLocation

Historic Weather in Knarvik — Graph

°F

Knarvik temperature yesterday

Maximum temperature yesterday: 37 °F (at 1:00 PM)
Minimum temperature yesterday: 33 °F (at 8:00 AM)
Average temperature yesterday: 35 °F

Past Weeks' High & Low Weather Summary

 TemperatureHumidityPressure
High46 °F (Mar 2, 3:00 PM)90% (Feb 18, 5:00 PM)30.18 "Hg (Feb 18, 5:00 PM)
Low32 °F (Feb 22, 7:00 AM)40% (Feb 24, 12:00 PM)28.58 "Hg (Feb 23, 7:00 AM)
Average40 °F80%29.41 "Hg
* Reported Feb 16 11:00 PM — Mar 3 11:00 PM, Knarvik, Weather by CustomWeather, © 2015

Note: Actual official high and low records may vary slightly from our data, if they occured in-between our weather recording intervals... More about our weather records

Advertising

Knarvik weather history for previous 24 hours

 ConditionsComfort  
Time TempWeatherWind HumidityBarometerVisibility
11:00 PM
Tue, Mar 3
34 °FChilly.5 mph84%29.61 "HgN/A
10:00 PM34 °FLight mixture of precip. Overcast.5 mph86%29.60 "Hg16 mi
9:00 PM34 °FChilly.5 mph85%29.60 "HgN/A
8:00 PM36 °FChilly.6 mph80%29.60 "HgN/A
7:00 PM36 °FPassing clouds.6 mph81%29.57 "Hg19 mi
6:00 PM35 °FChilly.5 mph82%29.56 "HgN/A
5:00 PM36 °FChilly.5 mph85%29.55 "HgN/A
4:00 PM35 °FOvercast.3 mph86%29.55 "Hg19 mi
3:00 PM36 °FChilly.N/A82%29.54 "HgN/A
2:00 PM35 °FChilly.5 mph84%29.50 "HgN/A
1:00 PM37 °FPartly sunny.5 mph81%29.50 "Hg17 mi
12:00 PM37 °FChilly.5 mph82%29.50 "HgN/A
11:00 AM36 °FChilly.5 mph83%29.47 "HgN/A
10:00 AM36 °FPartly sunny.3 mph85%29.47 "Hg19 mi
9:00 AM35 °FChilly.5 mph89%29.47 "HgN/A
8:00 AM33 °FChilly.N/A88%29.44 "HgN/A
7:00 AM34 °FLight mixture of precip. Overcast.6 mph87%29.44 "Hg9 mi
6:00 AM36 °FChilly.5 mph86%29.41 "HgN/A
5:00 AM36 °FChilly.5 mph87%29.41 "HgN/A
4:00 AM35 °FChilly.1 mph87%29.41 "HgN/A
3:00 AM35 °FChilly.2 mph85%29.41 "HgN/A
2:00 AM36 °FChilly.2 mph85%29.38 "HgN/A
1:00 AM36 °FChilly.3 mph84%29.35 "HgN/A
Weather by CustomWeather, © 2015

See weather overviewHow to use our weather pages